Location: Newark
(48.6461°N, 4.3644°W)
Time: 06:40:44
(UTC+00:00)

S-56A Canister/Altair - Pass Details

Date: 27 January 2020
Orbit: 633 x 2500 km, 38.9° (Epoch: 27 February)

Event Time Altitude Azimuth Distance (km) Brightness Sun altitude
Rises 21:36:25 0° 250° (WSW) 3,859 11.6 -43.8°
Enters shadow 21:39:22 - 242° (WSW) 2,782 10.7 -44.2°
Reaches altitude 10° 21:39:47 10° 240° (WSW) 2,630 - -44.3°
Maximum altitude 21:44:48 29° 182° (S) 1,373 - -45.1°
Drops below altitude 10° 21:48:51 10° 122° (ESE) 2,091 - -45.6°
Sets 21:51:14 0° 110° (ESE) 2,937 - -46.0°
